Location: Zagreb
(45.8000°N, 16.0000°E)
Time: 14:18:15
(UTC+02:00)

ISS - Visible Passes

Search period start: 16 June 2025 00:00
Search period end: 26 June 2025 00:00
Orbit: 415 x 417 km, 51.6° (Epoch: 15 June)

Date Brightness Start Highest point End Pass type
(mag) Time Alt. Az. Time Alt. Az. Time Alt. Az.
21 Jun -1.1 03:48:04 10° SE 03:48:37 10° SE 03:49:11 10° ESE visible
23 Jun -2.2 03:45:29 14° S 03:47:35 25° SE 03:50:24 10° E visible
24 Jun -1.7 02:58:33 15° SE 02:59:03 16° SE 03:01:09 10° E visible
25 Jun -3.6 03:44:24 18° SW 03:46:39 60° SSE 03:49:59 10° ENE visible
